Year,Month,Day,Hour,Minute,Value (Times are PST for temperature in C)
2021,04,11,00,00,3.60
2021,04,11,00,01,3.60
2021,04,11,00,02,3.60
2021,04,11,00,03,3.60
2021,04,11,00,04,3.60
2021,04,11,00,05,3.60
2021,04,11,00,06,3.60
2021,04,11,00,07,3.60
2021,04,11,00,08,3.60
2021,04,11,00,09,3.60
2021,04,11,00,10,3.60
2021,04,11,00,11,3.60
2021,04,11,00,12,3.60
2021,04,11,00,13,3.60
2021,04,11,00,14,3.60
2021,04,11,00,15,3.60
2021,04,11,00,16,3.60
2021,04,11,00,17,3.60
2021,04,11,00,18,3.60
2021,04,11,00,19,3.60
2021,04,11,00,20,3.60
2021,04,11,00,21,3.60
2021,04,11,00,22,3.50
2021,04,11,00,23,3.50
2021,04,11,00,24,3.50
2021,04,11,00,25,3.50
2021,04,11,00,26,3.50
2021,04,11,00,27,3.40
2021,04,11,00,28,3.40
2021,04,11,00,29,3.40
2021,04,11,00,30,3.40
2021,04,11,00,31,3.40
2021,04,11,00,32,3.40
2021,04,11,00,33,3.40
2021,04,11,00,34,3.40
2021,04,11,00,35,3.40
2021,04,11,00,36,3.30
2021,04,11,00,37,3.30
2021,04,11,00,38,3.30
2021,04,11,00,39,3.30
2021,04,11,00,40,3.30
2021,04,11,00,41,3.30
2021,04,11,00,42,3.30
2021,04,11,00,43,3.20
2021,04,11,00,44,3.20
2021,04,11,00,45,3.20
2021,04,11,00,46,3.20
2021,04,11,00,47,3.20
2021,04,11,00,48,3.20
2021,04,11,00,49,3.20
2021,04,11,00,50,3.10
2021,04,11,00,51,3.10
2021,04,11,00,52,3.10
2021,04,11,00,53,3.10
2021,04,11,00,54,3.10
2021,04,11,00,55,3.10
2021,04,11,00,56,3.00
2021,04,11,00,57,3.00
2021,04,11,00,58,3.00
2021,04,11,00,59,3.00
2021,04,11,01,00,3.00
2021,04,11,01,01,3.00
2021,04,11,01,02,3.00
2021,04,11,01,03,2.90
2021,04,11,01,04,3.00
2021,04,11,01,05,2.90
2021,04,11,01,06,2.90
2021,04,11,01,07,2.90
2021,04,11,01,08,2.90
2021,04,11,01,09,3.00
2021,04,11,01,10,3.00
2021,04,11,01,11,3.00
2021,04,11,01,12,3.00
2021,04,11,01,13,3.00
2021,04,11,01,14,3.00
2021,04,11,01,15,3.00
2021,04,11,01,16,3.00
2021,04,11,01,17,3.00
2021,04,11,01,18,3.00
2021,04,11,01,19,3.00
2021,04,11,01,20,3.00
2021,04,11,01,21,2.90
2021,04,11,01,22,2.90
2021,04,11,01,23,2.90
2021,04,11,01,24,2.90
2021,04,11,01,25,2.90
2021,04,11,01,26,2.90
2021,04,11,01,27,2.90
2021,04,11,01,28,2.90
2021,04,11,01,29,2.90
2021,04,11,01,30,2.80
2021,04,11,01,31,2.80
2021,04,11,01,32,2.80
2021,04,11,01,33,2.80
2021,04,11,01,34,2.80
2021,04,11,01,35,2.80
2021,04,11,01,36,2.80
2021,04,11,01,37,2.80
2021,04,11,01,38,2.80
2021,04,11,01,39,2.80
2021,04,11,01,40,2.80
2021,04,11,01,41,2.80
2021,04,11,01,42,2.80
2021,04,11,01,43,2.80
2021,04,11,01,44,2.80
2021,04,11,01,45,2.80
2021,04,11,01,46,2.80
2021,04,11,01,47,2.80
2021,04,11,01,48,2.80
2021,04,11,01,49,2.80
2021,04,11,01,50,2.70
2021,04,11,01,51,2.70
2021,04,11,01,52,2.70
2021,04,11,01,53,2.70
2021,04,11,01,54,2.80
2021,04,11,01,55,2.80
2021,04,11,01,56,2.80
2021,04,11,01,57,2.80
2021,04,11,01,58,2.80
2021,04,11,01,59,2.80
2021,04,11,02,00,2.80
2021,04,11,02,01,2.80
2021,04,11,02,02,2.80
2021,04,11,02,03,2.80
2021,04,11,02,04,2.80
2021,04,11,02,05,2.80
2021,04,11,02,06,2.80
2021,04,11,02,07,2.80
2021,04,11,02,08,2.80
2021,04,11,02,09,2.80
2021,04,11,02,10,2.80
2021,04,11,02,11,2.80
2021,04,11,02,12,2.80
2021,04,11,02,13,2.80
2021,04,11,02,14,2.80
2021,04,11,02,15,2.80
2021,04,11,02,16,2.70
2021,04,11,02,17,2.70
2021,04,11,02,18,2.70
2021,04,11,02,19,2.60
2021,04,11,02,20,2.60
2021,04,11,02,21,2.60
2021,04,11,02,22,2.50
2021,04,11,02,23,2.50
2021,04,11,02,24,2.50
2021,04,11,02,25,2.40
2021,04,11,02,26,2.40
2021,04,11,02,27,2.40
2021,04,11,02,28,2.40
2021,04,11,02,29,2.40
2021,04,11,02,30,2.40
2021,04,11,02,31,2.40
2021,04,11,02,32,2.40
2021,04,11,02,33,2.40
2021,04,11,02,34,2.30
2021,04,11,02,35,2.30
2021,04,11,02,36,2.30
2021,04,11,02,37,2.30
2021,04,11,02,38,2.20
2021,04,11,02,39,2.20
2021,04,11,02,40,2.10
2021,04,11,02,41,2.10
2021,04,11,02,42,2.00
2021,04,11,02,43,2.00
2021,04,11,02,44,1.90
2021,04,11,02,45,1.90
2021,04,11,02,46,1.80
2021,04,11,02,47,1.80
2021,04,11,02,48,1.80
2021,04,11,02,49,1.70
2021,04,11,02,50,1.70
2021,04,11,02,51,1.70
2021,04,11,02,52,1.60
2021,04,11,02,53,1.60
2021,04,11,02,54,1.60
2021,04,11,02,55,1.60
2021,04,11,02,56,1.50
2021,04,11,02,57,1.50
2021,04,11,02,58,1.50
2021,04,11,02,59,1.50
2021,04,11,03,00,1.50
2021,04,11,03,01,1.50
2021,04,11,03,02,1.50
2021,04,11,03,03,1.50
2021,04,11,03,04,1.40
2021,04,11,03,05,1.40
2021,04,11,03,06,1.40
2021,04,11,03,07,1.30
2021,04,11,03,08,1.30
2021,04,11,03,09,1.30
2021,04,11,03,10,1.30
2021,04,11,03,11,1.30
2021,04,11,03,12,1.30
2021,04,11,03,13,1.30
2021,04,11,03,14,1.30
2021,04,11,03,15,1.30
2021,04,11,03,16,1.30
2021,04,11,03,17,1.30
2021,04,11,03,18,1.40
2021,04,11,03,19,1.30
2021,04,11,03,20,1.40
2021,04,11,03,21,1.40
2021,04,11,03,22,1.30
2021,04,11,03,23,1.30
2021,04,11,03,24,1.40
2021,04,11,03,25,1.40
2021,04,11,03,26,1.50
2021,04,11,03,27,1.50
2021,04,11,03,28,1.60
2021,04,11,03,29,1.60
2021,04,11,03,30,1.70
2021,04,11,03,31,1.70
2021,04,11,03,32,1.80
2021,04,11,03,33,1.80
2021,04,11,03,34,1.80
2021,04,11,03,35,1.80
2021,04,11,03,36,1.80
2021,04,11,03,37,1.80
2021,04,11,03,38,1.80
2021,04,11,03,39,1.80
2021,04,11,03,40,1.80
2021,04,11,03,41,1.80
2021,04,11,03,42,1.80
2021,04,11,03,43,1.80
2021,04,11,03,44,1.80
2021,04,11,03,45,1.70
2021,04,11,03,46,1.70
2021,04,11,03,47,1.70
2021,04,11,03,48,1.70
2021,04,11,03,49,1.70
2021,04,11,03,50,1.60
2021,04,11,03,51,1.60
2021,04,11,03,52,1.60
2021,04,11,03,53,1.60
2021,04,11,03,54,1.60
2021,04,11,03,55,1.70
2021,04,11,03,56,1.70
2021,04,11,03,57,1.60
2021,04,11,03,58,1.60
2021,04,11,03,59,1.60
2021,04,11,04,00,1.60
2021,04,11,04,01,1.60
2021,04,11,04,02,1.60
2021,04,11,04,03,1.60
2021,04,11,04,04,1.60
2021,04,11,04,05,1.60
2021,04,11,04,06,1.60
2021,04,11,04,07,1.60
2021,04,11,04,08,1.60
2021,04,11,04,09,1.60
2021,04,11,05,04,2.20
2021,04,11,05,05,2.20
2021,04,11,05,06,2.20
2021,04,11,05,07,2.30
2021,04,11,05,08,2.30
2021,04,11,05,09,2.30
2021,04,11,05,10,2.30
2021,04,11,05,11,2.30
2021,04,11,05,12,2.40
2021,04,11,05,13,2.40
2021,04,11,05,14,2.40
2021,04,11,05,15,2.40
2021,04,11,05,16,2.40
2021,04,11,05,17,2.40
2021,04,11,05,18,2.40
2021,04,11,05,19,2.30
2021,04,11,05,20,2.30
2021,04,11,05,21,2.30
2021,04,11,05,22,2.20
2021,04,11,05,23,2.20
2021,04,11,05,24,2.10
2021,04,11,05,25,2.10
2021,04,11,05,26,2.00
2021,04,11,05,27,1.90
2021,04,11,05,28,1.90
2021,04,11,05,29,1.80
2021,04,11,05,30,1.80
2021,04,11,05,31,1.70
2021,04,11,05,32,1.70
2021,04,11,05,33,1.60
2021,04,11,05,34,1.60
2021,04,11,05,35,1.50
2021,04,11,05,36,1.50
2021,04,11,05,37,1.50
2021,04,11,05,38,1.40
2021,04,11,05,39,1.40
2021,04,11,05,40,1.40
2021,04,11,05,41,1.30
2021,04,11,05,42,1.30
2021,04,11,05,43,1.30
2021,04,11,05,44,1.20
2021,04,11,05,45,1.20
2021,04,11,05,46,1.20
2021,04,11,05,47,1.20
2021,04,11,05,48,1.20
2021,04,11,05,49,1.10
2021,04,11,05,50,1.10
2021,04,11,05,51,1.10
2021,04,11,05,52,1.10
2021,04,11,05,53,1.00
2021,04,11,05,54,1.00
2021,04,11,05,55,1.00
2021,04,11,05,56,0.90
2021,04,11,05,57,0.90
2021,04,11,05,58,0.90
2021,04,11,05,59,0.80
2021,04,11,06,00,0.80
2021,04,11,06,01,0.80
2021,04,11,06,02,0.80
2021,04,11,06,03,0.80
2021,04,11,06,04,0.70
2021,04,11,06,05,0.70
2021,04,11,06,06,0.60
2021,04,11,06,07,0.60
2021,04,11,06,08,0.60
2021,04,11,06,09,0.60
2021,04,11,06,10,0.60
2021,04,11,06,11,0.60
2021,04,11,06,12,0.60
2021,04,11,06,13,0.70
2021,04,11,06,14,0.70
2021,04,11,06,15,0.70
2021,04,11,06,16,0.80
2021,04,11,06,17,0.80
2021,04,11,06,18,0.80
2021,04,11,06,19,0.80
2021,04,11,06,20,0.80
2021,04,11,06,21,0.80
2021,04,11,06,22,0.80
2021,04,11,06,23,0.80
2021,04,11,06,24,0.80
2021,04,11,06,25,0.70
2021,04,11,06,26,0.70
2021,04,11,06,27,0.70
2021,04,11,06,28,0.70
2021,04,11,06,29,0.60
2021,04,11,06,30,0.60
2021,04,11,06,31,0.60
2021,04,11,06,32,0.50
2021,04,11,06,33,0.50
2021,04,11,06,34,0.50
2021,04,11,06,35,0.50
2021,04,11,06,36,0.50
2021,04,11,06,37,0.50
2021,04,11,06,38,0.50
2021,04,11,06,39,0.50
2021,04,11,06,40,0.50
2021,04,11,06,41,0.50
2021,04,11,06,42,0.50
2021,04,11,06,43,0.50
2021,04,11,06,44,0.60
2021,04,11,06,45,0.60
2021,04,11,06,46,0.60
2021,04,11,06,47,0.60
2021,04,11,06,48,0.70
2021,04,11,06,49,0.70
2021,04,11,06,50,0.70
2021,04,11,06,51,0.70
2021,04,11,06,52,0.70
2021,04,11,06,53,0.70
2021,04,11,06,54,0.70
2021,04,11,06,55,0.70
2021,04,11,06,56,0.70
2021,04,11,06,57,0.70
2021,04,11,06,58,0.70
2021,04,11,06,59,0.70
2021,04,11,07,00,0.70
2021,04,11,07,01,0.70
2021,04,11,07,02,0.70
2021,04,11,07,03,0.70
2021,04,11,07,04,0.70
2021,04,11,07,05,0.80
2021,04,11,07,06,0.80
2021,04,11,07,07,0.80
2021,04,11,07,08,0.80
2021,04,11,07,09,0.90
2021,04,11,07,10,0.90
2021,04,11,07,11,0.90
2021,04,11,07,12,0.90
2021,04,11,07,13,1.00
2021,04,11,07,14,1.00
2021,04,11,07,15,1.00
2021,04,11,07,16,1.10
2021,04,11,07,17,1.10
2021,04,11,07,18,1.20
2021,04,11,07,19,1.20
2021,04,11,07,20,1.20
2021,04,11,07,21,1.30
2021,04,11,07,22,1.30
2021,04,11,07,23,1.40
2021,04,11,07,24,1.40
2021,04,11,07,25,1.50
2021,04,11,07,26,1.50
2021,04,11,07,27,1.60
2021,04,11,07,28,1.60
2021,04,11,07,29,1.70
2021,04,11,07,30,1.70
2021,04,11,07,31,1.70
2021,04,11,07,32,1.70
2021,04,11,07,33,1.80
2021,04,11,07,34,1.80
2021,04,11,07,35,1.90
2021,04,11,07,36,1.90
2021,04,11,07,37,2.00
2021,04,11,07,38,2.00
2021,04,11,07,39,2.10
2021,04,11,07,40,2.20
2021,04,11,07,41,2.30
2021,04,11,07,42,2.40
2021,04,11,07,43,2.50
2021,04,11,07,44,2.60
2021,04,11,07,45,2.60
2021,04,11,07,46,2.70
2021,04,11,07,47,2.80
2021,04,11,07,48,2.90
2021,04,11,07,49,3.00
2021,04,11,07,50,3.10
2021,04,11,07,51,3.10
2021,04,11,07,52,3.20
2021,04,11,07,53,3.30
2021,04,11,07,54,3.30
2021,04,11,07,55,3.40
2021,04,11,07,56,3.50
2021,04,11,07,57,3.60
2021,04,11,07,58,3.60
2021,04,11,07,59,3.70
2021,04,11,08,00,3.80
2021,04,11,08,01,3.90
2021,04,11,08,02,3.90
2021,04,11,08,03,4.00
2021,04,11,08,04,4.10
2021,04,11,08,05,4.20
2021,04,11,08,06,4.20
2021,04,11,08,07,4.30
2021,04,11,08,08,4.40
2021,04,11,08,09,4.40
2021,04,11,08,10,4.50
2021,04,11,08,11,4.60
2021,04,11,08,12,4.70
2021,04,11,08,13,4.70
2021,04,11,08,14,4.80
2021,04,11,08,15,4.90
2021,04,11,08,16,4.90
2021,04,11,08,17,5.00
2021,04,11,08,18,5.10
2021,04,11,08,19,5.10
2021,04,11,08,20,5.20
2021,04,11,08,21,5.20
2021,04,11,08,22,5.30
2021,04,11,08,23,5.30
2021,04,11,08,24,5.40
2021,04,11,08,25,5.50
2021,04,11,08,26,5.50
2021,04,11,08,27,5.60
2021,04,11,08,28,5.70
2021,04,11,08,29,5.70
2021,04,11,08,30,5.80
2021,04,11,08,31,5.80
2021,04,11,08,32,5.90
2021,04,11,08,33,5.90
2021,04,11,08,34,6.00
2021,04,11,08,35,6.10
2021,04,11,08,36,6.10
2021,04,11,08,37,6.20
2021,04,11,08,38,6.20
2021,04,11,08,39,6.30
2021,04,11,08,40,6.30
2021,04,11,08,41,6.40
2021,04,11,08,42,6.40
2021,04,11,08,43,6.50
2021,04,11,08,44,6.60
2021,04,11,08,45,6.60
2021,04,11,08,46,6.60
2021,04,11,08,47,6.60
2021,04,11,08,48,6.60
2021,04,11,08,49,6.60
2021,04,11,08,50,6.70
2021,04,11,08,51,6.70
2021,04,11,08,52,6.70
2021,04,11,08,53,6.70
2021,04,11,08,54,6.70
2021,04,11,08,55,6.70
2021,04,11,08,56,6.70
2021,04,11,08,57,6.70
2021,04,11,08,58,6.70
2021,04,11,08,59,6.70
2021,04,11,09,00,6.70
2021,04,11,09,01,6.70
2021,04,11,09,02,6.70
2021,04,11,09,03,6.70
2021,04,11,09,04,6.70
2021,04,11,09,05,6.70
2021,04,11,09,06,6.70
2021,04,11,09,07,6.70
2021,04,11,09,08,6.80
2021,04,11,09,09,6.80
2021,04,11,09,10,6.80
2021,04,11,09,11,6.90
2021,04,11,09,12,6.90
2021,04,11,09,13,7.00
2021,04,11,09,14,7.00
2021,04,11,09,15,7.00
2021,04,11,09,16,7.00
2021,04,11,09,17,7.00
2021,04,11,09,18,7.00
2021,04,11,09,19,7.00
2021,04,11,09,20,7.00
2021,04,11,09,21,6.90
2021,04,11,09,22,6.90
2021,04,11,09,23,6.90
2021,04,11,09,24,6.90
2021,04,11,09,25,6.80
2021,04,11,09,26,6.80
2021,04,11,09,27,6.90
2021,04,11,09,28,6.90
2021,04,11,09,29,7.00
2021,04,11,09,30,7.00
2021,04,11,09,31,7.10
2021,04,11,09,32,7.10
2021,04,11,09,33,7.10
2021,04,11,09,34,7.20
2021,04,11,09,35,7.20
2021,04,11,09,36,7.20
2021,04,11,09,37,7.30
2021,04,11,09,38,7.30
2021,04,11,09,39,7.30
2021,04,11,09,40,7.40
2021,04,11,09,41,7.40
2021,04,11,09,42,7.40
2021,04,11,09,43,7.40
2021,04,11,09,44,7.50
2021,04,11,09,45,7.50
2021,04,11,09,46,7.50
2021,04,11,09,47,7.60
2021,04,11,09,48,7.60
2021,04,11,09,49,7.70
2021,04,11,09,50,7.70
2021,04,11,09,51,7.70
2021,04,11,09,52,7.70
2021,04,11,09,53,7.70
2021,04,11,09,54,7.70
2021,04,11,09,55,7.70
2021,04,11,09,56,7.80
2021,04,11,09,57,7.80
2021,04,11,09,58,7.80
2021,04,11,09,59,7.80
2021,04,11,10,00,7.80
2021,04,11,10,01,7.80
2021,04,11,10,02,7.80
2021,04,11,10,03,7.70
2021,04,11,10,04,7.70
2021,04,11,10,05,7.70
2021,04,11,10,06,7.70
2021,04,11,10,07,7.70
2021,04,11,10,08,7.60
2021,04,11,10,09,7.60
2021,04,11,10,10,7.60
2021,04,11,10,11,7.50
2021,04,11,10,12,7.50
2021,04,11,10,13,7.40
2021,04,11,10,14,7.40
2021,04,11,10,15,7.40
2021,04,11,10,16,7.40
2021,04,11,10,17,7.40
2021,04,11,10,18,7.40
2021,04,11,10,19,7.40
2021,04,11,10,20,7.40
2021,04,11,10,21,7.50
2021,04,11,10,22,7.50
2021,04,11,10,23,7.60
2021,04,11,10,24,7.60
2021,04,11,10,25,7.70
2021,04,11,10,26,7.80
2021,04,11,10,27,7.80
2021,04,11,10,28,7.90
2021,04,11,10,29,7.90
2021,04,11,10,30,8.00
2021,04,11,10,31,8.10
2021,04,11,10,32,8.10
2021,04,11,10,33,8.20
2021,04,11,10,34,8.30
2021,04,11,10,35,8.40
2021,04,11,10,36,8.50
2021,04,11,10,37,8.60
2021,04,11,10,38,8.60
2021,04,11,10,39,8.60
2021,04,11,10,40,8.70
2021,04,11,10,41,8.70
2021,04,11,10,42,8.60
2021,04,11,10,43,8.60
2021,04,11,10,44,8.50
2021,04,11,10,45,8.50
2021,04,11,10,46,8.40
2021,04,11,10,47,8.40
2021,04,11,10,48,8.40
2021,04,11,10,49,8.40
2021,04,11,10,50,8.40
2021,04,11,10,51,8.40
2021,04,11,10,52,8.50
2021,04,11,10,53,8.50
2021,04,11,10,54,8.60
2021,04,11,10,55,8.60
2021,04,11,10,56,8.60
2021,04,11,10,57,8.60
2021,04,11,10,58,8.70
2021,04,11,10,59,8.70
2021,04,11,11,00,8.80
2021,04,11,11,01,8.90
2021,04,11,11,02,9.00
2021,04,11,11,03,9.10
2021,04,11,11,04,9.10
2021,04,11,11,05,9.20
2021,04,11,11,06,9.20
2021,04,11,11,07,9.30
2021,04,11,11,08,9.40
2021,04,11,11,09,9.40
2021,04,11,11,10,9.50
2021,04,11,11,11,9.60
2021,04,11,11,12,9.70
2021,04,11,11,13,9.70
2021,04,11,11,14,9.70
2021,04,11,11,15,9.70
2021,04,11,11,16,9.70
2021,04,11,11,17,9.70
2021,04,11,11,18,9.70
2021,04,11,11,19,9.70
2021,04,11,11,20,9.70
2021,04,11,11,21,9.70
2021,04,11,11,22,9.70
2021,04,11,11,23,9.60
2021,04,11,11,24,9.50
2021,04,11,11,25,9.40
2021,04,11,11,26,9.30
2021,04,11,11,27,9.20
2021,04,11,11,28,9.10
2021,04,11,11,29,9.00
2021,04,11,11,30,9.00
2021,04,11,11,31,9.10
2021,04,11,11,32,9.10
2021,04,11,11,33,9.10
2021,04,11,11,34,9.20
2021,04,11,11,35,9.30
2021,04,11,11,36,9.40
2021,04,11,11,37,9.40
2021,04,11,11,38,9.30
2021,04,11,11,39,9.20
2021,04,11,11,40,9.00
2021,04,11,11,41,8.90
2021,04,11,11,42,8.90
2021,04,11,11,43,8.90
2021,04,11,11,44,8.80
2021,04,11,11,45,8.80
2021,04,11,11,46,8.70
2021,04,11,11,47,8.70
2021,04,11,11,48,8.70
2021,04,11,11,49,8.80
2021,04,11,11,50,8.70
2021,04,11,11,51,8.80
2021,04,11,11,52,8.80
2021,04,11,11,53,8.90
2021,04,11,11,54,8.90
2021,04,11,11,55,8.90
2021,04,11,11,56,8.90
2021,04,11,11,57,9.00
2021,04,11,11,58,9.20
2021,04,11,11,59,9.20
2021,04,11,12,00,9.20
2021,04,11,12,01,9.20
2021,04,11,12,02,9.10
2021,04,11,12,03,9.10
2021,04,11,12,04,9.10
2021,04,11,12,05,9.20
2021,04,11,12,06,9.20
2021,04,11,12,07,9.20
2021,04,11,12,08,9.20
2021,04,11,12,09,9.10
2021,04,11,12,10,9.10
2021,04,11,12,11,9.00
2021,04,11,12,12,9.00
2021,04,11,12,13,9.00
2021,04,11,12,14,8.90
2021,04,11,12,15,8.90
2021,04,11,12,16,8.90
2021,04,11,12,17,8.90
2021,04,11,12,18,8.90
2021,04,11,12,19,8.90
2021,04,11,12,20,9.00
2021,04,11,12,21,9.10
2021,04,11,12,22,9.10
2021,04,11,12,23,9.10
2021,04,11,12,24,9.10
2021,04,11,12,25,9.10
2021,04,11,12,26,9.20
2021,04,11,12,27,9.20
2021,04,11,12,28,9.30
2021,04,11,12,29,9.30
2021,04,11,12,30,9.20
2021,04,11,12,31,9.20
2021,04,11,12,32,9.20
2021,04,11,12,33,9.30
2021,04,11,12,34,9.40
2021,04,11,12,35,9.50
2021,04,11,12,36,9.50
2021,04,11,12,37,9.50
2021,04,11,12,38,9.30
2021,04,11,12,39,9.20
2021,04,11,12,40,9.00
2021,04,11,12,41,8.90
2021,04,11,12,42,8.80
2021,04,11,12,43,8.80
2021,04,11,12,44,8.80
2021,04,11,12,45,8.90
2021,04,11,12,46,8.90
2021,04,11,12,47,8.90
2021,04,11,12,48,8.80
2021,04,11,12,49,8.80
2021,04,11,12,50,8.70
2021,04,11,12,51,8.70
2021,04,11,12,52,8.70
2021,04,11,12,53,8.80
2021,04,11,12,54,8.80
2021,04,11,12,55,8.80
2021,04,11,12,56,8.80
2021,04,11,12,57,8.80
2021,04,11,12,58,8.90
2021,04,11,12,59,8.90
2021,04,11,13,00,8.90
2021,04,11,13,01,8.80
2021,04,11,13,02,8.80
2021,04,11,13,03,8.80
2021,04,11,13,04,8.80
2021,04,11,13,05,8.80
2021,04,11,13,06,8.80
2021,04,11,13,07,8.90
2021,04,11,13,08,8.90
2021,04,11,13,09,8.90
2021,04,11,13,10,9.00
2021,04,11,13,11,9.00
2021,04,11,13,12,9.10
2021,04,11,13,13,9.10
2021,04,11,13,14,9.10
2021,04,11,13,15,9.10
2021,04,11,13,16,9.00
2021,04,11,13,17,9.00
2021,04,11,13,18,9.00
2021,04,11,13,19,9.00
2021,04,11,13,20,9.10
2021,04,11,13,21,9.20
2021,04,11,13,22,9.30
2021,04,11,13,23,9.30
2021,04,11,13,24,9.30
2021,04,11,13,25,9.30
2021,04,11,13,26,9.20
2021,04,11,13,27,9.20
2021,04,11,13,28,9.30
2021,04,11,13,29,9.40
2021,04,11,13,30,9.40
2021,04,11,13,31,9.50
2021,04,11,13,32,9.50
2021,04,11,13,33,9.60
2021,04,11,13,34,9.70
2021,04,11,13,35,9.70
2021,04,11,13,36,9.70
2021,04,11,13,37,9.70
2021,04,11,13,38,9.70
2021,04,11,13,39,9.80
2021,04,11,13,40,9.80
2021,04,11,13,41,9.80
2021,04,11,13,42,9.80
2021,04,11,13,43,9.80
2021,04,11,13,44,9.80
2021,04,11,13,45,9.80
2021,04,11,13,46,9.70
2021,04,11,13,47,9.50
2021,04,11,13,48,9.50
2021,04,11,13,49,9.40
2021,04,11,13,50,9.30
2021,04,11,13,51,9.20
2021,04,11,13,52,9.20
2021,04,11,13,53,9.20
2021,04,11,13,54,9.20
2021,04,11,13,55,9.30
2021,04,11,13,56,9.40
2021,04,11,13,57,9.40
2021,04,11,13,58,9.50
2021,04,11,13,59,9.50
2021,04,11,14,00,9.60
2021,04,11,14,01,9.60
2021,04,11,14,02,9.60
2021,04,11,14,03,9.60
2021,04,11,14,04,9.60
2021,04,11,14,05,9.60
2021,04,11,14,06,9.60
2021,04,11,14,07,9.50
2021,04,11,14,08,9.50
2021,04,11,14,09,9.50
2021,04,11,14,10,9.60
2021,04,11,14,11,9.50
2021,04,11,14,12,9.40
2021,04,11,14,13,9.40
2021,04,11,14,14,9.40
2021,04,11,14,15,9.30
2021,04,11,14,16,9.40
2021,04,11,14,17,9.40
2021,04,11,14,18,9.40
2021,04,11,14,19,9.40
2021,04,11,14,20,9.40
2021,04,11,14,21,9.40
2021,04,11,14,22,9.40
2021,04,11,14,23,9.40
2021,04,11,14,24,9.50
2021,04,11,14,25,9.50
2021,04,11,14,26,9.60
2021,04,11,14,27,9.70
2021,04,11,14,28,9.70
2021,04,11,14,29,9.60
2021,04,11,14,30,9.60
2021,04,11,14,31,9.60
2021,04,11,14,32,9.70
2021,04,11,14,33,9.80
2021,04,11,14,34,9.90
2021,04,11,14,35,9.90
2021,04,11,14,36,10.00
2021,04,11,14,37,10.00
2021,04,11,14,38,10.10
2021,04,11,14,39,10.10
2021,04,11,14,40,10.00
2021,04,11,14,41,10.00
2021,04,11,14,42,9.90
2021,04,11,14,43,9.80
2021,04,11,14,44,9.80
2021,04,11,14,45,9.70
2021,04,11,14,46,9.70
2021,04,11,14,47,9.70
2021,04,11,14,48,9.60
2021,04,11,14,49,9.50
2021,04,11,14,50,9.50
2021,04,11,14,51,9.50
2021,04,11,14,52,9.40
2021,04,11,14,53,9.40
2021,04,11,14,54,9.40
2021,04,11,14,55,9.40
2021,04,11,14,56,9.40
2021,04,11,14,57,9.40
2021,04,11,14,58,9.40
2021,04,11,14,59,9.50
2021,04,11,15,00,9.50
2021,04,11,15,01,9.60
2021,04,11,15,02,9.60
2021,04,11,15,03,9.60
2021,04,11,15,04,9.70
2021,04,11,15,05,9.70
2021,04,11,15,06,9.70
2021,04,11,15,07,9.70
2021,04,11,15,08,9.70
2021,04,11,15,09,9.70
2021,04,11,15,10,9.70
2021,04,11,15,11,9.70
2021,04,11,15,12,9.70
2021,04,11,15,13,9.70
2021,04,11,15,14,9.70
2021,04,11,15,15,9.70
2021,04,11,15,16,9.70
2021,04,11,15,17,9.70
2021,04,11,15,18,9.80
2021,04,11,15,19,9.80
2021,04,11,15,20,9.90
2021,04,11,15,21,9.90
2021,04,11,15,22,10.00
2021,04,11,15,23,10.00
2021,04,11,15,24,10.10
2021,04,11,15,25,10.10
2021,04,11,15,26,10.10
2021,04,11,15,27,10.00
2021,04,11,15,28,10.00
2021,04,11,15,29,9.90
2021,04,11,15,30,9.90
2021,04,11,15,31,9.90
2021,04,11,15,32,9.90
2021,04,11,15,33,9.80
2021,04,11,15,34,9.80
2021,04,11,15,35,9.80
2021,04,11,15,36,9.80
2021,04,11,15,37,9.80
2021,04,11,15,38,9.90
2021,04,11,15,39,9.90
2021,04,11,15,40,10.00
2021,04,11,15,41,10.00
2021,04,11,15,42,10.00
2021,04,11,15,43,9.90
2021,04,11,15,44,9.90
2021,04,11,15,45,9.80
2021,04,11,15,46,9.70
2021,04,11,15,47,9.70
2021,04,11,15,48,9.60
2021,04,11,15,49,9.70
2021,04,11,15,50,9.60
2021,04,11,15,51,9.60
2021,04,11,15,52,9.60
2021,04,11,15,53,9.60
2021,04,11,15,54,9.60
2021,04,11,15,55,9.60
2021,04,11,15,56,9.70
2021,04,11,15,57,9.70
2021,04,11,15,58,9.70
2021,04,11,15,59,9.70
2021,04,11,16,00,9.80
2021,04,11,16,01,9.80
2021,04,11,16,02,9.90
2021,04,11,16,03,9.90
2021,04,11,16,04,9.90
2021,04,11,16,05,9.80
2021,04,11,16,06,9.80
2021,04,11,16,07,9.70
2021,04,11,16,08,9.70
2021,04,11,16,09,9.60
2021,04,11,17,04,9.60
2021,04,11,17,05,9.60
2021,04,11,17,06,9.60
2021,04,11,17,07,9.60
2021,04,11,17,08,9.60
2021,04,11,17,09,9.60
2021,04,11,17,10,9.60
2021,04,11,17,11,9.60
2021,04,11,17,12,9.70
2021,04,11,17,13,9.70
2021,04,11,17,14,9.80
2021,04,11,17,15,9.80
2021,04,11,17,16,9.90
2021,04,11,17,17,10.00
2021,04,11,17,18,10.00
2021,04,11,17,19,10.10
2021,04,11,17,20,10.30
2021,04,11,17,21,10.30
2021,04,11,17,22,10.40
2021,04,11,17,23,10.40
2021,04,11,17,24,10.40
2021,04,11,17,25,10.40
2021,04,11,17,26,10.30
2021,04,11,17,27,10.30
2021,04,11,17,28,10.30
2021,04,11,17,29,10.30
2021,04,11,17,30,10.30
2021,04,11,17,31,10.30
2021,04,11,17,32,10.30
2021,04,11,17,33,10.30
2021,04,11,17,34,10.30
2021,04,11,17,35,10.30
2021,04,11,17,36,10.30
2021,04,11,17,37,10.20
2021,04,11,17,38,10.20
2021,04,11,17,39,10.20
2021,04,11,17,40,10.20
2021,04,11,17,41,10.20
2021,04,11,17,42,10.10
2021,04,11,17,43,10.10
2021,04,11,17,44,10.10
2021,04,11,17,45,10.00
2021,04,11,17,46,10.00
2021,04,11,17,47,10.00
2021,04,11,17,48,10.00
2021,04,11,17,49,10.00
2021,04,11,17,50,10.00
2021,04,11,17,51,10.00
2021,04,11,17,52,10.00
2021,04,11,17,53,10.10
2021,04,11,17,54,10.10
2021,04,11,17,55,10.20
2021,04,11,17,56,10.20
2021,04,11,17,57,10.30
2021,04,11,17,58,10.30
2021,04,11,17,59,10.30
2021,04,11,18,00,10.30
2021,04,11,18,01,10.30
2021,04,11,18,02,10.30
2021,04,11,18,03,10.30
2021,04,11,18,04,10.30
2021,04,11,18,05,10.30
2021,04,11,18,06,10.30
2021,04,11,18,07,10.30
2021,04,11,18,08,10.20
2021,04,11,18,09,10.20
2021,04,11,18,10,10.20
2021,04,11,18,11,10.10
2021,04,11,18,12,10.10
2021,04,11,18,13,10.00
2021,04,11,18,14,9.90
2021,04,11,18,15,9.90
2021,04,11,18,16,9.80
2021,04,11,18,17,9.80
2021,04,11,18,18,9.80
2021,04,11,18,19,9.80
2021,04,11,18,20,9.70
2021,04,11,18,21,9.70
2021,04,11,18,22,9.70
2021,04,11,18,23,9.70
2021,04,11,18,24,9.70
2021,04,11,18,25,9.70
2021,04,11,18,26,9.70
2021,04,11,18,27,9.80
2021,04,11,18,28,9.80
2021,04,11,18,29,9.80
2021,04,11,18,30,9.70
2021,04,11,18,31,9.70
2021,04,11,18,32,9.60
2021,04,11,18,33,9.50
2021,04,11,18,34,9.50
2021,04,11,18,35,9.50
2021,04,11,18,36,9.50
2021,04,11,18,37,9.40
2021,04,11,18,38,9.40
2021,04,11,18,39,9.40
2021,04,11,18,40,9.30
2021,04,11,18,41,9.30
2021,04,11,18,42,9.30
2021,04,11,18,43,9.30
2021,04,11,18,44,9.20
2021,04,11,18,45,9.20
2021,04,11,18,46,9.20
2021,04,11,18,47,9.30
2021,04,11,18,48,9.30
2021,04,11,18,49,9.30
2021,04,11,18,50,9.30
2021,04,11,18,51,9.40
2021,04,11,18,52,9.40
2021,04,11,18,53,9.40
2021,04,11,18,54,9.40
2021,04,11,18,55,9.50
2021,04,11,18,56,9.50
2021,04,11,18,57,9.50
2021,04,11,18,58,9.50
2021,04,11,18,59,9.50
2021,04,11,19,00,9.50
2021,04,11,19,01,9.50
2021,04,11,19,02,9.60
2021,04,11,19,03,9.60
2021,04,11,19,04,9.50
2021,04,11,19,05,9.50
2021,04,11,19,06,9.40
2021,04,11,19,07,9.30
2021,04,11,19,08,9.30
2021,04,11,19,09,9.30
2021,04,11,19,10,9.20
2021,04,11,19,11,9.20
2021,04,11,19,12,9.20
2021,04,11,19,13,9.10
2021,04,11,19,14,9.10
2021,04,11,19,15,9.10
2021,04,11,19,16,9.10
2021,04,11,19,17,9.10
2021,04,11,19,18,9.00
2021,04,11,19,19,9.00
2021,04,11,19,20,9.00
2021,04,11,19,21,9.00
2021,04,11,19,22,9.00
2021,04,11,19,23,9.00
2021,04,11,19,24,9.00
2021,04,11,19,25,9.00
2021,04,11,19,26,9.00
2021,04,11,19,27,9.00
2021,04,11,19,28,9.00
2021,04,11,19,29,9.00
2021,04,11,19,30,9.00
2021,04,11,19,31,9.00
2021,04,11,19,32,9.00
2021,04,11,19,33,9.00
2021,04,11,19,34,8.90
2021,04,11,19,35,8.90
2021,04,11,19,36,8.90
2021,04,11,19,37,8.90
2021,04,11,19,38,8.90
2021,04,11,19,39,8.90
2021,04,11,19,40,8.90
2021,04,11,19,41,8.90
2021,04,11,19,42,8.90
2021,04,11,19,43,8.90
2021,04,11,19,44,8.90
2021,04,11,19,45,8.90
2021,04,11,19,46,8.90
2021,04,11,19,47,8.80
2021,04,11,19,48,8.80
2021,04,11,19,49,8.80
2021,04,11,19,50,8.80
2021,04,11,19,51,8.70